Submittal Forms
Current Contests
Recent Contests

Club Activity Tracker - Kansas City Contest Club (from club selection on form)

Recent postings for the selected club or group are listed below. Other than the call used, all calls listed are only those associated with the club or group. Click on a call to see the details of the posting.
Status Key: new=new posting, update=update prior posting, move=change club/group, delete=delete prior posting.

Sort by   for past

TimestampCallContestClassPowerScoreStatus
2020-05-22 03:01:59K0VBUNCCC SprintSingle OpLP1,360new5598
2020-05-21 04:01:56K0VBUCWopsTSingle OpLP9,936new5594
2020-05-20 20:01:52K0VBUCWopsTSingle OpLP12,543new5593
2020-05-20 14:02:15K0VBUCWopsTSingle OpLP506new5592
2020-05-20 13:25:04NW0MCWopsTSingle OpLP625new5592
2020-05-17 07:30:29K0VBUHamventionSingle OpLP187new5569
2020-05-17 00:05:15NW0MHamventionSingle OpLP208new5569
2020-05-15 04:25:27W0MBVolta RTTYSOABHP3,065,338new5563
2020-05-15 03:03:07K0VBUNCCC SprintSingle OpLP884new5580
2020-05-14 04:01:47K0VXUCWopsTSingle OpHP7,225new5576
 
2020-05-14 04:01:33K0VBUCWopsTSingle OpLP8,526new5576
2020-05-13 20:01:41K0VBUCWopsTSingle OpLP14,396new5575
2020-05-13 14:01:46K0VBUCWopsTSingle OpLP729new5574
2020-05-13 13:28:07NW0MCWopsTSingle OpLP400new5574
2020-05-13 07:52:49K0VBUCQ-MSOABCWLP175new5564
2020-05-12 17:41:13K0APArQPSOMixedLP1,210new5565
2020-05-10 06:54:50K0VBUArQPSOCWLP288new5565
2020-05-08 03:02:33K0VBUNCCC SprintSingle OpLP1,462new5562
2020-05-07 04:02:17K0VBUCWopsTSingle OpLP8,256new5559
2020-05-06 20:03:58K0VBUCWopsTSingle OpLP12,430new5558
 
2020-05-06 14:01:50K0VBUCWopsTSingle OpLP289new5557
2020-05-06 13:19:29NW0MCWopsTSingle OpLP400new5557
2020-05-04 06:21:02K0VBUInQPSingle OpLP546new5545
2020-05-04 06:15:34K0VBUNewEngQPSingle OpLP9,840new5547
2020-05-04 06:10:42K0VBUDeQPSingle OpLP1,600new5546
2020-05-04 06:01:17K0VBU7QPSO(A)CWLP31,872new5544
2020-05-04 00:12:31NW0MNewEngQPSingle OpLP7,178new5547
2020-05-04 00:12:05NW0MInQPSingle OpLP220new5545
2020-05-04 00:11:28NW0MDeQPSingle OpLP800new5546
2020-05-04 00:10:55NW0M7QPSOCWLP15,933new5544
 
2020-05-03 00:02:14N7WY7QPSOCWLP148,470new5544
2020-05-01 03:01:56K0VBUNCCC SprintSingle OpLP1,290new5540
2020-04-30 04:01:50K0VBUCWopsTSingle OpLP11,648new5537
2020-04-29 20:03:08K0VBUCWopsTSingle OpLP7,990new5536
2020-04-29 19:36:35N7WYCWopsTSingle OpLP676new5536
2020-04-29 14:02:02K0VBUCWopsTSingle OpLP961new5535
2020-04-29 13:26:41N7WYCWopsTSingle OpLP64new5535
2020-04-26 22:55:49K0VBUFlQPSOAB(A)CWLP23,868new5529
2020-04-26 22:51:33N7WYFlQPSOABCWLP1,536new5529
2020-04-26 21:39:24NW0MFlQPSOABCWLP13,600new